Broken Bow, NE

12:37 AM CST on November 23, 2017 (GMT -0600)
Broken Bow Municipal

Weather History for KBBW - October, 2012

Change the Weather History Date:

Sunday, October 7, 2012

  Actual Average Record
Temperature  
Mean Temperature 39 °F 53 °F  
Max Temperature 56 °F 67 °F 89 °F (2006)
Min Temperature 22 °F 39 °F 12 °F (1952)
Degree Days  
Heating Degree Days 26 13  
Month to date heating degree days 142 80  
Cooling Degree Days 0 0  
Month to date cooling degree days 0 2  
Year to date cooling degree days 1077 764  
Moisture  
Dew Point 24 °F    
Average Humidity 60    
Maximum Humidity 96    
Minimum Humidity 24    
Precipitation  
Precipitation 0.00 in 0.06 in 1.29 in (1992)
Sea Level Pressure  
Sea Level Pressure 30.17 in    
Wind  
Wind Speed 9 mph (WSW)    
Max Wind Speed 28 mph    
Max Gust Speed 33 mph    
Visibility 10 miles    
Events      
T = Trace of Precipitation, MM = Missing Value Source: NWS Daily Summary

Daily Weather History Graph

Daily Weather History Graph

Search for Another Location

Airport or City:

Trip Planner

Search our weather history database for the weather conditions in past years. The results will help you decide how hot, cold, wet, or windy it might be!

Date:

Astronomy

Oct. 07, 2012 Rise Set
Actual Time 7:42 AM CDT 7:09 PM CDT
Civil Twilight 7:14 AM CDT 7:37 PM CDT
Nautical Twilight 6:42 AM CDT 8:09 PM CDT
Astronomical Twilight 6:10 AM CDT 8:41 PM CDT
Moon No Moon Rise 2:23 PM CDT (10/7)
Length of Visible Light 12h 22m
Length of Day
11h 27m
Waning Gibbous, 56% of the Moon is Illuminated
Oct 7
Waning Gibbous
Oct 8
Last Quarter
Oct 15
New
Oct 21
First Quarter
Oct 29
Full

Hourly Weather History & Observations

Time (CDT) Temp. Windchill Dew Point Humidity Pressure Visibility Wind Dir Wind Speed Gust Speed Precip Events Conditions
12:53 AM 23.0 °F 14.7 °F 21.0 °F 92% 30.36 in 10.0 mi WSW 6.9 mph - N/A   Clear
1:53 AM 28.0 °F 20.8 °F 26.1 °F 92% 30.34 in 10.0 mi West 6.9 mph - N/A   Clear
2:53 AM 28.0 °F 20.8 °F 25.0 °F 88% 30.33 in 10.0 mi West 6.9 mph - N/A   Clear
3:53 AM 28.0 °F 19.3 °F 25.0 °F 88% 30.32 in 10.0 mi West 9.2 mph - N/A   Clear
4:53 AM 26.1 °F 18.4 °F 24.1 °F 92% 30.30 in 10.0 mi West 6.9 mph - N/A   Clear
5:53 AM 27.0 °F 19.5 °F 24.1 °F 89% 30.28 in 10.0 mi West 6.9 mph - N/A   Clear
6:53 AM 25.0 °F 18.1 °F 23.0 °F 92% 30.29 in 10.0 mi West 5.8 mph - N/A   Clear
7:53 AM 23.0 °F 15.8 °F 21.0 °F 92% 30.30 in 10.0 mi West 5.8 mph - N/A   Clear
8:53 AM 28.0 °F 22.8 °F 25.0 °F 88% 30.28 in 10.0 mi WSW 4.6 mph - N/A   Clear
9:53 AM 35.1 °F 28.6 °F 28.0 °F 76% 30.26 in 10.0 mi SW 8.1 mph - N/A   Clear
10:53 AM 39.9 °F 32.1 °F 28.0 °F 63% 30.24 in 10.0 mi SW 13.8 mph - N/A   Clear
11:53 AM 45.0 °F 37.9 °F 27.0 °F 49% 30.21 in 10.0 mi SW 16.1 mph 23.0 mph N/A   Clear
12:53 PM 48.9 °F - 25.0 °F 39% 30.18 in 10.0 mi WSW 16.1 mph - N/A   Clear
1:53 PM 51.1 °F - 26.1 °F 38% 30.13 in 10.0 mi WSW 19.6 mph 25.3 mph N/A   Clear
2:53 PM 53.1 °F - 24.1 °F 32% 30.08 in 10.0 mi WSW 16.1 mph 27.6 mph N/A   Clear
3:53 PM 55.0 °F - 19.9 °F 25% 30.05 in 10.0 mi West 11.5 mph 27.6 mph N/A   Clear
4:53 PM 55.9 °F - 19.9 °F 25% 30.03 in 10.0 mi WSW 9.2 mph 21.9 mph N/A   Clear
5:53 PM 55.0 °F - 19.0 °F 24% 30.01 in 10.0 mi WSW 9.2 mph - N/A   Clear
6:53 PM 50.0 °F - 19.9 °F 31% 30.02 in 10.0 mi WSW 5.8 mph - N/A   Clear
7:53 PM 44.1 °F 39.5 °F 21.9 °F 42% 30.03 in 10.0 mi SSW 8.1 mph - N/A   Clear
8:53 PM 42.1 °F 37.7 °F 24.1 °F 49% 30.04 in 10.0 mi WSW 6.9 mph - N/A   Clear
9:53 PM 41.0 °F 35.8 °F 25.0 °F 53% 30.03 in 10.0 mi West 8.1 mph - N/A   Clear
10:53 PM 37.9 °F 32.1 °F 24.1 °F 57% 30.02 in 10.0 mi WSW 8.1 mph - N/A   Clear
11:53 PM 39.0 °F 33.4 °F 25.0 °F 57% 30.00 in 10.0 mi WSW 8.1 mph - N/A   Clear